EW3281 Weather Reports


Display with metric or nautical units.
time (UTC)temp
F
wind
direction
speed
MPH
gust
MPH
rain 1hr
in
rain 24hr
in
rain mn
in
humidity
%
barometer
mb
20260503225554 53 224 0.0 3.0 0.00 0.00 0.00 39 1006.8
20260503225051 53 231 0.0 3.0 0.00 0.00 0.00 38 1006.7
20260503224551 53 212 0.0 1.0 0.00 0.00 0.00 37 1006.6
20260503224050 53 234 0.0 1.0 0.00 0.00 0.00 38 1006.5
20260503223551 53 235 0.0 0.0 0.00 0.00 0.00 38 1006.4
20260503223050 53 232 0.0 0.0 0.00 0.00 0.00 37 1006.4
20260503222548 53 243 0.0 1.0 0.00 0.00 0.00 39 1006.3
20260503222048 53 252 0.0 1.0 0.00 0.00 0.00 39 1006.3
20260503221557 53 219 0.0 0.0 0.00 0.00 0.00 38 1006.2
20260503221047 54 262 0.0 1.0 0.00 0.00 0.00 38 1006.1
20260503220547 53 222 0.0 1.0 0.00 0.00 0.00 39 1006.1
20260503220148 53 234 0.0 0.0 0.00 0.00 0.00 41 1005.9
20260503215547 54 221 0.0 0.0 0.00 0.00 0.00 39 1006.0
20260503215044 54 271 0.0 2.0 0.00 0.00 0.00 40 1005.9
20260503214544 54 226 0.0 2.0 0.00 0.00 0.00 39 1005.8
20260503214043 54 79 0.0 6.0 0.00 0.00 0.00 38 1005.8
20260503213545 54 109 0.0 0.0 0.00 0.00 0.00 39 1005.8
20260503213043 54 149 0.0 0.0 0.00 0.00 0.00 38 1005.7
20260503212543 54 207 0.0 1.0 0.00 0.00 0.00 39 1005.5
20260503212042 54 23 0.0 1.0 0.00 0.00 0.00 40 1005.4
20260503211542 54 224 0.0 1.0 0.00 0.00 0.00 39 1005.5
20260503211041 54 235 0.0 0.0 0.00 0.00 0.00 39 1005.3
20260503210540 55 226 0.0 0.0 0.00 0.00 0.00 39 1005.2
20260503210141 55 221 0.0 0.0 0.00 0.00 0.00 40 1005.1
20260503205539 55 228 0.0 0.0 0.00 0.00 0.00 39 1005.0
20260503205038 55 219 0.0 1.0 0.00 0.00 0.00 38 1005.0
20260503204550 55 227 0.0 0.0 0.00 0.00 0.00 40 1004.9
20260503204038 55 231 0.0 0.0 0.00 0.00 0.00 39 1004.9
20260503203537 55 229 0.0 0.0 0.00 0.00 0.00 39 1004.9
20260503203038 55 231 0.0 0.0 0.00 0.00 0.00 39 1004.7
20260503202537 56 307 0.0 0.0 0.00 0.00 0.00 39 1004.7
20260503202037 56 210 0.0 2.0 0.00 0.00 0.00 40 1004.6
20260503201538 56 36 0.0 2.0 0.00 0.00 0.00 40 1004.6
20260503201036 56 230 0.0 0.0 0.00 0.00 0.00 38 1004.6
20260503200536 56 230 0.0 0.0 0.00 0.00 0.00 39 1004.5
20260503200136 56 203 0.0 1.0 0.00 0.00 0.00 38 1004.4
20260503195536 56 244 0.0 1.0 0.00 0.00 0.00 38 1004.5
20260503195035 56 224 0.0 4.0 0.00 0.00 0.00 40 1004.5
20260503194535 56 219 0.0 4.0 0.00 0.00 0.00 40 1004.5
20260503194036 55 221 0.0 1.0 0.00 0.00 0.00 41 1004.5
20260503193533 56 211 0.0 0.0 0.00 0.00 0.00 42 1004.6
20260503193033 55 258 0.0 0.0 0.00 0.01 0.00 42 1004.6
20260503192530 55 221 0.0 0.0 0.00 0.01 0.00 41 1004.7
20260503192030 54 327 0.0 0.0 0.00 0.01 0.00 43 1004.6
20260503191530 53 216 0.0 4.0 0.00 0.01 0.00 43 1004.6
20260503191030 53 328 0.0 4.0 0.00 0.01 0.00 44 1004.7
20260503190530 54 231 0.0 1.0 0.00 0.01 0.00 44 1004.6
20260503190129 54 225 0.0 0.0 0.00 0.01 0.00 44 1004.6
20260503185529 54 203 0.0 0.0 0.00 0.01 0.00 43 1004.4
20260503185030 54 236 0.0 0.0 0.00 0.01 0.00 44 1004.5
20260503184530 54 212 0.0 0.0 0.00 0.01 0.00 42 1004.6
20260503184131 54 214 0.0 0.0 0.00 0.01 0.00 42 1004.6
20260503183527 54 83 0.0 0.0 0.00 0.01 0.00 46 1004.6
20260503183028 54 228 0.0 1.0 0.00 0.01 0.00 43 1004.6
20260503182527 54 210 0.0 1.0 0.00 0.01 0.00 43 1004.6
20260503182026 55 213 0.0 1.0 0.00 0.01 0.00 45 1004.5
20260503181526 55 270 0.0 1.0 0.00 0.01 0.00 44 1004.5
20260503181026 54 100 0.0 0.0 0.00 0.01 0.00 44 1004.5
20260503180528 54 261 0.0 0.0 0.00 0.01 0.00 47 1004.5
20260503180128 54 219 0.0 0.0 0.00 0.01 0.00 47 1004.6
20260503175524 54 230 0.0 0.0 0.00 0.01 0.00 48 1004.6
20260503175026 54 230 0.0 0.0 0.00 0.01 0.00 47 1004.6
20260503174523 54 230 0.0 0.0 0.00 0.01 0.00 48 1004.6
20260503174023 54 233 0.0 0.0 0.00 0.01 0.00 48 1004.6
20260503173522 54 249 0.0 0.0 0.00 0.01 0.00 47 1004.5
20260503173022 54 224 0.0 0.0 0.00 0.01 0.00 51 1004.5
20260503172521 54 255 0.0 0.0 0.00 0.01 0.00 49 1004.6
20260503172020 54 293 0.0 0.0 0.00 0.01 0.00 50 1004.5
20260503171519 53 201 0.0 0.0 0.00 0.01 0.00 51 1004.7
20260503171018 53 210 0.0 0.0 0.00 0.01 0.00 51 1004.7
20260503170517 53 188 0.0 0.0 0.00 0.01 0.00 52 1004.7
20260503170117 52 42 0.0 4.0 0.00 0.01 0.00 52 1004.7
20260503160110 49 220 0.0 2.0 0.00 0.01 0.00 64 1004.7
20260503151006 49 277 0.0 0.0 0.00 0.01 0.01 66 1004.4
20260503150506 48 229 0.0 0.0 0.00 0.01 0.01 65 1004.4
20260503150104 48 244 0.0 1.0 0.00 0.01 0.01 65 1004.4
20260503131059 48 134 0.0 0.0 0.00 0.01 0.01 65 1004.4
20260503130559 48 198 0.0 0.0 0.00 0.01 0.01 66 1004.5
20260503130110 48 4 0.0 0.0 0.00 0.01 0.01 68 1004.4
20260503120120 45 225 0.0 0.0 0.00 0.01 0.01 68 1004.8
20260503110602 0 0.0 0.0 0.00 0.01 0.01 1005.2
20260503081540 47 234 0.0 0.0 0.00 0.01 0.01 63 1005.9
20260503081023 47 234 0.0 0.0 0.00 0.01 0.01 63 1005.8
20260503080522 46 244 0.0 0.0 0.00 0.01 0.01 63 1005.9
20260503072519 47 248 0.0 0.0 0.00 0.01 0.01 60 1006.3
20260503072018 47 243 0.0 0.0 0.00 0.01 0.01 60 1006.2
20260503071532 47 237 0.0 0.0 0.00 0.01 0.01 60 1006.1
20260503071018 47 342 0.0 0.0 0.00 0.01 0.01 60 1006.3
20260503070516 47 252 0.0 0.0 0.00 0.01 0.01 60 1006.4
20260503055025 49 229 0.0 0.0 0.00 0.01 0.01 59 1007.0
20260503054532 49 231 0.0 0.0 0.00 0.01 0.01 59 1007.2
20260503054019 49 229 0.0 0.0 0.00 0.01 0.01 59 1007.5
20260503053519 49 229 0.0 0.0 0.00 0.01 0.01 60 1007.5
20260503053020 49 225 0.0 0.0 0.00 0.01 0.01 60 1007.5
20260503052524 49 231 0.0 0.0 0.00 0.01 0.01 61 1007.6
20260503052017 49 235 0.0 0.0 0.00 0.01 0.01 61 1007.6
20260503051518 49 228 0.0 0.0 0.00 0.01 0.01 62 1007.6
20260503051017 49 278 0.0 0.0 0.00 0.01 0.01 64 1007.6
20260503050517 49 206 0.0 0.0 0.00 0.01 0.01 66 1007.6
20260503050016 49 243 0.0 0.0 0.00 0.01 0.01 67 1007.6
20260503045615 49 241 0.0 0.0 0.00 0.01 0.01 69 1007.6
20260503045022 49 215 0.0 0.0 0.00 0.01 0.01 69 1007.7
20260503044534 49 230 0.0 0.0 0.00 0.01 0.01 70 1007.8
20260503044021 49 231 0.0 0.0 0.00 0.01 0.01 71 1008.1
20260503043517 49 223 0.0 0.0 0.00 0.01 0.01 73 1008.1
20260503043017 49 229 0.0 0.0 0.00 0.01 0.01 76 1008.1
20260503042516 49 228 0.0 0.0 0.00 0.01 0.01 78 1008.2
20260503042015 48 234 0.0 0.0 0.00 0.01 0.01 81 1008.0
20260503041514 48 217 0.0 0.0 0.00 0.01 0.01 84 1008.0
20260503041013 48 243 0.0 0.0 0.00 0.01 0.01 89 1008.1
20260503040512 48 263 0.0 0.0 0.00 0.01 0.01 92 1008.1
20260503040011 48 237 0.0 0.0 0.00 0.01 0.01 93 1008.3
20260503035614 48 224 0.0 0.0 0.00 0.01 0.01 94 1008.5
20260503035032 48 224 0.0 0.0 0.00 0.01 0.01 94 1008.6
20260503034529 48 248 0.0 0.0 0.00 0.01 0.01 94 1008.5
20260503034028 48 226 0.0 0.0 0.00 0.01 0.01 94 1008.4
20260503033528 48 226 0.0 0.0 0.00 0.01 0.01 94 1008.4
20260503033029 48 226 0.0 0.0 0.00 0.01 0.01 94 1008.5
20260503032528 48 226 0.0 0.0 0.00 0.01 0.01 94 1008.6
20260503032027 48 49 0.0 0.0 0.00 0.01 0.01 94 1008.4
20260503031527 48 51 0.0 0.0 0.00 0.01 0.01 94 1008.4
20260503031027 48 51 0.0 0.0 0.00 0.01 0.01 94 1008.4
20260503030527 48 51 0.0 0.0 0.00 0.01 0.01 93 1008.3
20260503030028 48 51 0.0 0.0 0.00 0.01 0.01 93 1008.3
20260503025626 48 51 0.0 0.0 0.00 0.01 0.01 93 1008.3
20260503025004 48 51 0.0 0.0 0.00 0.01 0.01 93 1008.4
20260503024504 48 51 0.0 0.0 0.00 0.01 0.01 93 1008.3
20260503024004 48 51 0.0 0.0 0.00 0.01 0.01 93 1008.4
20260503023503 48 51 0.0 0.0 0.00 0.01 0.01 93 1008.5
20260503023002 48 51 0.0 0.0 0.00 0.01 0.01 93 1008.6
20260503022502 49 51 0.0 0.0 0.00 0.01 0.01 93 1008.6
20260503022005 49 51 0.0 0.0 0.00 0.01 0.01 92 1008.7
20260503021502 49 51 0.0 0.0 0.00 0.01 0.01 92 1008.7
20260503021002 49 51 0.0 0.0 0.00 0.01 0.01 92 1008.6
20260503020501 49 51 0.0 0.0 0.00 0.01 0.01 92 1008.6
20260503020000 49 51 0.0 0.0 0.00 0.01 0.01 92 1008.6
20260503015601 49 51 0.0 0.0 0.00 0.01 0.01 92 1008.8
20260503015018 49 51 0.0 0.0 0.00 0.01 0.01 92 1008.8
20260503014518 49 51 0.0 0.0 0.00 0.01 0.01 92 1008.8
20260503014018 49 51 0.0 0.0 0.00 0.01 0.01 92 1008.9
20260503013523 49 51 0.0 0.0 0.00 0.01 0.01 92 1008.9
20260503013026 49 51 0.0 0.0 0.00 0.01 0.01 91 1008.9
20260503012519 49 51 0.0 0.0 0.00 0.01 0.01 91 1008.9
20260503012020 49 51 0.0 0.0 0.00 0.01 0.01 91 1009.0
20260503011516 49 51 0.0 0.0 0.00 0.01 0.01 91 1008.9
20260503011016 49 51 0.0 0.0 0.00 0.01 0.01 91 1008.8
20260503010516 49 51 0.0 0.0 0.00 0.01 0.01 91 1008.8
20260503010015 49 51 0.0 0.0 0.00 0.01 0.01 91 1008.8
20260503005617 49 51 0.0 0.0 0.00 0.01 0.01 91 1008.7
20260503005031 49 51 0.0 0.0 0.00 0.01 0.01 91 1008.7
20260503004527 49 51 0.0 0.0 0.00 0.01 0.01 91 1008.7
20260503004027 49 51 0.0 0.0 0.00 0.01 0.01 91 1008.6
20260503003527 49 51 0.0 0.0 0.00 0.01 0.01 91 1008.6
20260503003027 49 51 0.0 0.0 0.00 0.01 0.01 91 1008.6
20260503002531 49 51 0.0 0.0 0.00 0.01 0.01 91 1008.6
20260503002028 49 51 0.0 0.0 0.00 0.01 0.01 91 1008.6
20260503001527 49 51 0.0 0.0 0.00 0.01 0.01 91 1008.6
20260503001026 49 51 0.0 0.0 0.00 0.01 0.01 90 1008.6
20260503000528 49 51 0.0 0.0 0.00 0.01 0.01 90 1008.5
20260503000028 49 51 0.0 0.0 0.00 0.01 0.01 90 1008.5
20260502235625 49 51 0.0 0.0 0.00 0.01 0.01 90 1008.7
20260502235004 49 51 0.0 0.0 0.00 0.01 0.01 90 1008.7
20260502234504 49 51 0.0 0.0 0.00 0.01 0.01 90 1008.6
20260502234006 49 51 0.0 0.0 0.00 0.01 0.01 90 1008.6
20260502233506 49 51 0.0 0.0 0.00 0.01 0.01 90 1008.7
20260502233003 49 51 0.0 0.0 0.00 0.01 0.01 90 1008.7
20260502232503 50 51 0.0 0.0 0.00 0.01 0.01 90 1008.7
20260502232003 50 51 0.0 0.0 0.00 0.01 0.01 90 1008.7
20260502231505 50 51 0.0 0.0 0.00 0.01 0.01 90 1008.7
20260502231002 50 51 0.0 0.0 0.00 0.01 0.01 90 1008.6
20260502230502 50 51 0.0 0.0 0.00 0.01 0.01 90 1008.7